Home > Weather > Bari > Past weeks

Flag for Italy Weather for the Past 2 Weeks in Bari, Italy

Now
59 °F

Sunny.


Feels Like: 57 °F
Forecast: 54 / 67 °F
Wind: 12 mph from Northwest

Location: Bari / Palese Macchie

Current Time: May 5, 2016 at 9:01:04 AM

Latest Report: May 5, 2016 at 7:50 AM


Visibility: 10 mi

Pressure: 30.01 "Hg

Humidity: 72%

Dew Point: 50 °F

Location of BariLocation

Historic Weather in Bari — Graph

°F

Bari Temperature Yesterday

Maximum temperature yesterday: 66 °F (at 9:50 AM)
Minimum temperature yesterday: 57 °F (at 1:20 AM)
Average temperature yesterday: 62 °F

High & Low Weather Summary for the Past Weeks

 TemperatureHumidityPressure
High73 °F (Apr 22, 10:20 AM)100% (Apr 29, 5:20 AM)30.27 "Hg (Apr 29, 5:20 AM)
Low46 °F (Apr 26, 3:20 AM)29% (Apr 22, 1:20 PM)29.50 "Hg (Apr 24, 12:50 PM)
Average60 °F70%29.88 "Hg
* Reported Apr 20 7:20 AM — May 5 7:20 AM, Bari, Weather by CustomWeather, © 2016

Note: Actual official high and low records may vary slightly from our data, if they occured in-between our weather recording intervals... More about our weather records

Advertising

Bari Weather History for the Previous 24 Hours

Scroll right to see more
 ConditionsComfort  
Time TempWeatherWind HumidityBarometerVisibility
7:20 AM
Thu, May 5
57 °FSunny.10 mph77%30.01 "Hg10 mi
6:50 AM55 °FSunny.10 mph82%30.01 "Hg10 mi
6:20 AM55 °FClear.12 mph82%29.98 "Hg10 mi
5:20 AM54 °FClear.10 mph88%29.98 "Hg10 mi
4:50 AM54 °FClear.10 mph88%29.98 "Hg10 mi
4:20 AM55 °FClear.10 mph82%29.98 "Hg10 mi
3:20 AM55 °FClear.17 mph82%29.98 "Hg10 mi
2:50 AM55 °FClear.12 mph82%29.98 "Hg10 mi
1:50 AM55 °FPassing clouds.12 mph82%29.98 "HgN/A
1:20 AM57 °FPassing clouds.12 mph82%29.98 "HgN/A
12:50 AM57 °FPassing clouds.12 mph82%29.98 "HgN/A
12:20 AM57 °FPassing clouds.12 mph77%29.98 "HgN/A
11:50 PM
Wed, May 4
57 °FClear.12 mph82%29.98 "Hg10 mi
11:20 PM59 °FClear.10 mph77%29.98 "Hg10 mi
10:50 PM59 °FClear.13 mph77%29.98 "Hg10 mi
10:20 PM59 °FPassing clouds.12 mph77%29.98 "HgN/A
9:50 PM61 °FPassing clouds.13 mph72%29.95 "HgN/A
9:20 PM61 °FPassing clouds.13 mph72%29.95 "HgN/A
8:50 PM61 °FPassing clouds.14 mph72%29.95 "HgN/A
8:20 PM63 °FPassing clouds.14 mph68%29.92 "HgN/A
7:50 PM63 °FPassing clouds.15 mph68%29.92 "HgN/A
7:20 PM63 °FPassing clouds.16 mph68%29.92 "HgN/A
6:50 PM63 °FPassing clouds.15 mph68%29.92 "HgN/A
5:50 PM66 °FPassing clouds.17 mph64%29.92 "HgN/A
5:20 PM64 °FPassing clouds.18 mph68%29.92 "HgN/A
4:50 PM64 °FPassing clouds.18 mph68%29.89 "HgN/A
4:20 PM66 °FPassing clouds.18 mph64%29.89 "HgN/A
3:50 PM64 °FPassing clouds.21 mph68%29.89 "HgN/A
3:20 PM64 °FPassing clouds.22 mph64%29.89 "HgN/A
2:50 PM66 °FPassing clouds.20 mph64%29.89 "HgN/A
2:20 PM64 °FPassing clouds.20 mph64%29.89 "HgN/A
1:50 PM66 °FPassing clouds.18 mph68%29.89 "HgN/A
1:20 PM66 °FPassing clouds.20 mph60%29.89 "HgN/A
12:50 PM66 °FPassing clouds.20 mph68%29.89 "HgN/A
12:20 PM64 °FPassing clouds.21 mph64%29.89 "HgN/A
11:50 AM66 °FPassing clouds.21 mph60%29.89 "HgN/A
11:20 AM66 °FPassing clouds.20 mph64%29.89 "HgN/A
10:50 AM64 °FPassing clouds.22 mph68%29.89 "HgN/A
10:20 AM66 °FPassing clouds.17 mph64%29.86 "HgN/A
9:50 AM66 °FPassing clouds.17 mph64%29.86 "HgN/A
9:20 AM64 °FSunny.16 mph64%29.86 "Hg10 mi
Weather by CustomWeather, © 2016

See weather overviewHow to use our weather pages